sat.trackr.live / text

‹ back to catalog

STARLINK-36955

NORAD 68701 · 2026-081C

PAYLOAD ACTIVE UNKNOWN

§ Identity

Operator
Country
US
Launch date
2026-04-14
Launch site
AFETR
Launch vehicle
Mass (kg)
RCS (m²)

Purposes: comms

External: N2YO · Heavens-Above · Gunter

§ Orbital elements

Epoch: 2026-05-25T04:00:03.998880Z

Period
93.58 min
Inclination
53.1595°
Eccentricity
0.0001462
Mean motion
15.38854193 rev/d
Perigee alt
448.5 km
Apogee alt
450.5 km
Semi-major
6,827.6 km
B*
-6.0837e-2
RAAN
39.2111°
Arg perigee
78.7312°
Mean anomaly
41.7572°
Rev number
590

§ Raw data

STARLINK-369551 68701U 26081C   26145.16671295 -.02136748  00000+0 -60837-1 0  99912 68701  53.1595  39.2111 0001462  78.7312  41.7572 15.38854193  5907

JSON: /api/v1/satellites/68701 · /tle

For live sub-satellite position, see the globe view (requires WebGL).

§ Visibility from observer

Set your observer location to see the next 7 days of passes ≥ 10°. The values pass through the URL so the page stays shareable.

No JS? Fill the form by hand. The geolocation button needs JavaScript.